College Park, MD

8:38 AM EST on December 09, 2019 (GMT -0500)
College Park

Weather History for KCGS - October, 2019

Change the Weather History Date:

Sunday, October 27, 2019

  Actual Average Record
Temperature  
Mean Temperature 66 °F -  
Max Temperature 78 °F 64 °F 84 °F (1963)
Min Temperature 55 °F 42 °F 27 °F (1988)
Cooling Degree Days 2    
Growing Degree Days 16 (Base 50)    
Moisture  
Dew Point 56 °F    
Average Humidity 73    
Maximum Humidity 94    
Minimum Humidity 35    
Precipitation  
Precipitation 0.00 in - - ()
Sea Level Pressure  
Sea Level Pressure 29.88 in    
Wind  
Wind Speed 4 mph (SW)    
Max Wind Speed 13 mph    
Max Gust Speed 20 mph    
Visibility 9 miles    
Events      
Averages and records for this station are not official NWS values.
T = Trace of Precipitation, MM = Missing Value Source: NWS Daily Summary

Daily Weather History Graph

Daily Weather History Graph

Search for Another Location

Airport or City:

Astronomy

Oct. 27, 2019 Rise Set
Actual Time 7:29 AM EDT 6:13 PM EDT
Civil Twilight 7:01 AM EDT 6:40 PM EDT
Nautical Twilight 6:30 AM EDT 7:11 PM EDT
Astronomical Twilight 5:59 AM EDT 7:42 PM EDT
Moon 6:36 AM EDT (10/27) 6:20 PM EDT (10/27)
Length of Visible Light 11h 38m
Length of Day
10h 43m
Waning Crescent, 0% of the Moon is Illuminated
Oct 27
Waning Crescent
Oct 27
New
Nov 4
First Quarter
Nov 12
Full
Nov 19
Last Quarter

Hourly Weather History & Observations

Time (EDT) Temp. Dew Point Humidity Pressure Visibility Wind Dir Wind Speed Gust Speed Precip Events Conditions
12:03 AM 58.1 °F 51.1 °F 77% 30.10 in 10.0 mi East 3.5 mph - N/A   Overcast
12:23 AM 58.1 °F 51.3 °F 78% 30.09 in 10.0 mi Calm Calm - N/A   Overcast
12:43 AM 58.1 °F 51.6 °F 79% 30.07 in 10.0 mi ENE 3.5 mph - N/A   Overcast
1:03 AM 58.3 °F 52.0 °F 80% 30.07 in 10.0 mi Calm Calm - N/A   Overcast
1:23 AM 58.6 °F 52.3 °F 80% 30.06 in 10.0 mi East 3.5 mph - N/A   Overcast
2:03 AM 58.6 °F 52.9 °F 81% 30.05 in 10.0 mi East 3.5 mph - N/A   Overcast
2:23 AM 58.5 °F 53.2 °F 83% 30.03 in 10.0 mi Calm Calm - N/A   Overcast
2:43 AM 58.3 °F 54.1 °F 86% 30.02 in 10.0 mi East 4.6 mph - N/A   Overcast
3:03 AM 58.6 °F 54.5 °F 86% 30.02 in 10.0 mi East 3.5 mph - N/A   Overcast
3:23 AM 59.4 °F 54.7 °F 84% 30.00 in 10.0 mi East 4.6 mph - N/A   Overcast
3:43 AM 58.8 °F 55.2 °F 88% 29.98 in 7.0 mi East 4.6 mph - N/A   Overcast
4:03 AM 58.6 °F 56.8 °F 94% 29.97 in 7.0 mi ESE 3.5 mph - N/A   Overcast
4:23 AM 59.0 °F 57.2 °F 94% 29.94 in 7.0 mi East 4.6 mph - N/A   Overcast
4:43 AM 59.2 °F 57.2 °F 93% 29.93 in 5.0 mi ESE 4.6 mph - N/A   Overcast
5:03 AM 59.5 °F 57.6 °F 93% 29.92 in 10.0 mi East 5.8 mph - N/A   Overcast
5:23 AM 59.9 °F 58.1 °F 94% 29.91 in 5.0 mi ESE 4.6 mph - N/A   Overcast
5:43 AM 60.4 °F 58.5 °F 93% 29.89 in 5.0 mi SE 5.8 mph - N/A   Overcast
6:03 AM 61.0 °F 59.2 °F 94% 29.87 in 7.0 mi SE 6.9 mph - N/A   Overcast
6:23 AM 61.7 °F 59.9 °F 94% 29.86 in 7.0 mi SE 4.6 mph - N/A   Overcast
6:43 AM 62.1 °F 60.3 °F 94% 29.85 in 7.0 mi SE 6.9 mph - N/A   Overcast
7:03 AM 62.6 °F 60.8 °F 94% 29.84 in 7.0 mi SE 4.6 mph - N/A   Overcast
7:23 AM 63.1 °F 61.3 °F 94% 29.83 in 5.0 mi SE 5.8 mph - N/A   Overcast
7:43 AM 64.0 °F 62.1 °F 93% 29.80 in 3.0 mi SE 6.9 mph - N/A   Overcast
8:03 AM 64.8 °F 62.8 °F 93% 29.80 in 5.0 mi SE 4.6 mph - N/A   Overcast
8:23 AM 65.8 °F 63.9 °F 93% 29.79 in 5.0 mi SE 6.9 mph - N/A   Overcast
8:43 AM 66.9 °F 64.9 °F 93% 29.79 in 10.0 mi SSE 6.9 mph 16.1 mph N/A   Overcast
9:03 AM 68.0 °F 65.8 °F 93% 29.78 in 10.0 mi SSE 8.1 mph - N/A   Overcast
9:23 AM 68.9 °F 66.7 °F 93% 29.78 in 10.0 mi South 12.7 mph 19.6 mph N/A   Overcast
9:43 AM 69.1 °F 67.1 °F 93% 29.79 in 10.0 mi South 8.1 mph 16.1 mph N/A   Overcast
10:03 AM 69.1 °F 67.1 °F 93% 29.78 in 5.0 mi South 6.9 mph 18.4 mph N/A   Overcast
10:23 AM 69.1 °F 67.1 °F 93% 29.79 in 2.5 mi SW 3.5 mph - N/A   Overcast
10:43 AM 68.9 °F 67.1 °F 94% 29.77 in 4.0 mi SSW 4.6 mph - N/A   Overcast
11:03 AM 68.9 °F 66.7 °F 93% 29.78 in 3.0 mi SW 3.5 mph - N/A   Overcast
11:23 AM 68.9 °F 67.1 °F 94% 29.77 in 3.0 mi NW 4.6 mph - N/A   Overcast
11:43 AM - - N/A% 29.77 in 10.0 mi NW 5.8 mph - N/A   Overcast
12:03 PM 67.1 °F 65.3 °F 94% 29.77 in 10.0 mi Calm Calm - N/A   Overcast
12:23 PM 68.0 °F 66.2 °F 94% 29.78 in 10.0 mi WNW 5.8 mph - N/A   Overcast
12:43 PM 68.9 °F 67.1 °F 94% 29.77 in 7.0 mi WNW 3.5 mph - N/A   Overcast
1:03 PM 70.3 °F 68.5 °F 94% 29.77 in 10.0 mi WNW 6.9 mph - N/A   Overcast
1:23 PM 71.1 °F 63.1 °F 76% 29.77 in 10.0 mi West 5.8 mph - N/A   Mostly Cloudy
1:43 PM 72.5 °F 62.1 °F 70% 29.76 in 10.0 mi WNW 3.5 mph - N/A   Scattered Clouds
2:03 PM 73.2 °F 61.7 °F 67% 29.76 in 10.0 mi West 9.2 mph - N/A   Scattered Clouds
2:23 PM 75.0 °F 61.9 °F 64% 29.76 in 10.0 mi West 4.6 mph - N/A   Scattered Clouds
2:43 PM 76.8 °F 60.8 °F 58% 29.76 in 10.0 mi WNW 9.2 mph - N/A   Clear
3:03 PM 77.4 °F 60.4 °F 56% 29.76 in 10.0 mi WSW 5.8 mph - N/A   Clear
3:23 PM 76.6 °F 57.4 °F 51% 29.77 in 10.0 mi WNW 8.1 mph - N/A   Scattered Clouds
3:43 PM 77.9 °F 54.7 °F 45% 29.77 in 10.0 mi West 8.1 mph 17.3 mph N/A   Scattered Clouds
4:03 PM 78.1 °F 52.5 °F 41% 29.78 in 10.0 mi WNW 9.2 mph - N/A   Clear
4:23 PM 78.3 °F 51.1 °F 39% 29.78 in 10.0 mi West 10.4 mph 16.1 mph N/A   Clear
4:43 PM 77.9 °F 49.3 °F 37% 29.79 in 10.0 mi WNW 10.4 mph - N/A   Clear
5:03 PM 77.4 °F 47.3 °F 35% 29.81 in 10.0 mi West 5.8 mph - N/A   Clear
5:23 PM 76.6 °F 47.1 °F 35% 29.81 in 10.0 mi West 4.6 mph - N/A   Clear
5:43 PM 75.9 °F 47.1 °F 36% 29.83 in 10.0 mi West 5.8 mph - N/A   Clear
6:03 PM 74.5 °F 46.6 °F 37% 29.84 in 10.0 mi West 8.1 mph 19.6 mph N/A   Clear
6:23 PM 73.2 °F 46.2 °F 38% 29.85 in 10.0 mi West 5.8 mph - N/A   Clear
6:43 PM 72.5 °F 46.4 °F 39% 29.87 in 10.0 mi WNW 8.1 mph - N/A   Clear
7:23 PM 71.6 °F 45.3 °F 39% 29.89 in 10.0 mi WNW 5.8 mph - N/A   Clear
7:43 PM 70.2 °F 45.7 °F 41% 29.89 in 10.0 mi West 3.5 mph - N/A   Scattered Clouds
8:03 PM 68.5 °F 45.9 °F 44% 29.91 in 10.0 mi Calm Calm - N/A   Scattered Clouds
8:23 PM 68.4 °F 46.6 °F 46% 29.92 in 10.0 mi Calm Calm - N/A   Clear
8:43 PM 63.0 °F 48.7 °F 60% 29.93 in 10.0 mi Calm Calm - N/A   Clear
9:03 PM 63.9 °F 48.0 °F 56% 29.94 in 10.0 mi Calm Calm - N/A   Clear
9:23 PM 61.7 °F 48.7 °F 62% 29.95 in 10.0 mi Calm Calm - N/A   Clear
9:43 PM 60.6 °F 49.1 °F 66% 29.96 in 10.0 mi Calm Calm - N/A   Clear
10:03 PM 59.9 °F 48.9 °F 67% 29.97 in 10.0 mi NW 4.6 mph - N/A   Clear
10:23 PM 59.4 °F 48.7 °F 68% 29.99 in 10.0 mi Calm Calm - N/A   Clear
10:43 PM 60.4 °F 47.5 °F 62% 29.99 in 10.0 mi Calm Calm - N/A   Clear
11:03 PM 57.2 °F 48.6 °F 73% 29.99 in 10.0 mi Calm Calm - N/A   Clear
11:23 PM 55.9 °F 48.2 °F 75% 30.00 in 10.0 mi Calm Calm - N/A   Clear
11:43 PM 62.2 °F 45.7 °F 55% 30.00 in 10.0 mi NNW 4.6 mph - N/A   Clear